Location: Dannhausen
(51.8650°N, 10.1026°E)
Time: 00:17:07
(UTC+00:00)

Cosmos 2233 Rocket - Pass Details

Date: 11 August 2020
Orbit: 952 x 992 km, 82.9° (Epoch: 26 September)

Event Time Altitude Azimuth Distance (km) Brightness Sun altitude
Exits shadow 00:02:42 18° 250° (WSW) 2,221 5.6 -22.4°
Maximum altitude 00:06:11 29° 296° (WNW) 1,742 5.4 -22.3°
Drops below altitude 10° 00:11:37 10° 355° (N) 2,767 7.4 -22.2°
Sets 00:14:33 0° 6° (N) 3,717 8.5 -22.1°
